Location: Pompeys Pillar
(45.9913°N, 107.9528°W)
Time: 18:07:00
(UTC+00:00)

X-37B - Visible Passes

Search period start: 22 January 2022 00:00
Search period end: 01 February 2022 00:00
Orbit: 334 x 337 km, 45.0° (Epoch: 11 January)

Date Brightness Start Highest point End Pass type
(mag) Time Alt. Az. Time Alt. Az. Time Alt. Az.
26 Jan 3.3 02:07:36 10° S 02:07:37 10° S 02:07:37 10° S visible
27 Jan 3.3 02:27:01 10° SW 02:27:26 13° SW 02:27:26 13° SW visible
28 Jan 2.5 01:13:03 10° S 01:14:47 15° SSE 01:15:56 12° ESE visible
28 Jan 3.9 02:47:05 10° WSW 02:47:10 11° WSW 02:47:10 11° WSW visible
29 Jan 1.5 01:32:27 10° SW 01:34:58 29° SSE 01:35:38 26° SE visible
30 Jan 0.7 01:52:31 10° WSW 01:55:16 50° SSE 01:55:16 50° SSE visible
31 Jan 1.5 02:12:50 10° W 02:14:53 42° WSW 02:14:53 42° WSW visible
